www.pogodaiklimat.ru
ПОГОДА в Пало Альто
Время
и дата
18:47 17.07
19:47 17.07
05:47 18.07
06:47 18.07
07:47 18.07
08:18 18.07
08:47 18.07
09:47 18.07
10:47 18.07
11:47 18.07
12:47 18.07
13:47 18.07
14:47 18.07
15:47 18.07
16:47 18.07
17:47 18.07
18:47 18.07
19:47 18.07
05:55 19.07
06:47 19.07
07:47 19.07
08:47 19.07
09:47 19.07
10:47 19.07
11:47 19.07
12:47 19.07
13:47 19.07
14:47 19.07
15:47 19.07
16:47 19.07
18:47 19.07
19:47 19.07
05:55 20.07
06:47 20.07
07:47 20.07
08:47 20.07
09:47 20.07
10:05 20.07
10:47 20.07
11:47 20.07
12:47 20.07
13:47 20.07
14:47 20.07
18:47 20.07
19:47 20.07
05:47 21.07
06:47 21.07
07:47 21.07
Ветер
(напр.,м/с)
Видим. Явления Облачность Т
(С)
Тd
(С)
f
(%)
Тe
(С)
Тes
(С)
Комфортность P
(гПа)
Po
(гПа)
Тmin
(С)
Tmax
(С)
R
(мм)
R24
(мм)
S
(см)
СЗ 7 16 км ясно +19.0 +14.0 73 +20 +20 1015.2
СЗ 5 16 км ясно +18.0 +14.0 77 +18 +18 1015.6
штиль 0 16 км 8/8 300 м +13.0 +12.0 94 +12 +12 1015.6
штиль 0 16 км 8/8 300 м +16.0 +14.0 88 +16 +16 1015.9
нст 2 16 км 8/8 180 м +17.0 +14.0 82 +17 +18 1016.2
нст 2 16 км 5/5 390 м +17.0 +14.0 82 +17 +21 1016.2
нст 2 16 км 2/2 390 м +18.0 +14.0 77 +19 +24 1016.2
нст 3 16 км 2/2 390 м +19.0 +15.0 78 +20 +28 1016.2
С 4 16 км ясно +21.0 +16.0 73 +25 +35 комфорт 1015.9
С 4 16 км ясно +21.0 +16.0 73 +25 +38 комфорт 1015.9
С 6 16 км ясно +23.0 +16.0 65 +27 +36 душно 1015.6
СЗ 6 16 км ясно +24.0 +16.0 61 +27 +35 жарко 1015.2
СЗ 8 16 км ясно +24.0 +15.0 57 +27 +30 жарко 1014.9
С 8 16 км ясно +23.0 +15.0 61 +27 +29 душно 1014.5
СЗ 9 16 км ясно +22.0 +14.0 60 +25 +26 комфорт 1014.5
СЗ 9 16 км ясно +21.0 +14.0 64 +23 +24 комфорт 1014.5
СЗ 7 16 км ясно +19.0 +13.0 68 +19 +20 1015.6
СЗ 7 16 км ясно +19.0 +14.0 73 +20 +20 1015.9
штиль 0 16 км ясно +14.0 +12.0 88 +14 +14 1015.9
штиль 0 16 км ясно +17.0 +14.0 82 +17 +18 1016.2
нст 2 16 км ясно +18.0 +14.0 77 +19 +22 1016.2
нст 2 16 км ясно +19.0 +15.0 78 +21 +28 комфорт 1016.2
нст 2 16 км ясно +21.0 +16.0 73 +25 +37 комфорт 1015.6
С 4 16 км ясно +23.0 +17.0 69 +28 +39 душно 1015.2
С 4 16 км ясно +24.0 +15.0 57 +27 +40 жарко 1014.9
СЗ 5 16 км ясно +29.0 +15.0 43 +32 +42 душно 1014.2
С 7 16 км ясно +30.0 +14.0 38 +32 +37 жарко 1013.9
СЗ 7 16 км ясно +30.0 +14.0 38 +32 +37 жарко 1013.2
СЗ 10 16 км ясно +28.0 +13.0 40 +30 +30 жарко 1012.5
СЗ 7 16 км ясно +27.0 +14.0 45 +29 +32 жарко 1012.5
СЗ 6 16 км ясно +23.0 +13.0 53 +26 +26 жарко 1013.2
СЗ 4 16 км ясно +20.0 +14.0 68 +22 +22 комфорт 1013.5
штиль 0 13 км ясно +16.0 +13.0 82 +16 +16 1013.5
СЗ 2 16 км ясно +18.0 +13.0 73 +19 +19 1013.9
С 2 16 км ясно +19.0 +14.0 73 +21 +24 комфорт 1014.2
С 3 16 км ясно +20.0 +15.0 73 +23 +28 комфорт 1014.2
С 5 16 км ясно +21.0 +16.0 73 +24 +31 комфорт 1014.2
С 6 16 км ясно +21.0 +16.0 73 +24 +31 комфорт 1014.2
С 5 16 км ясно +22.0 +16.0 69 +26 +34 душно 1013.9
С 6 16 км ясно +22.0 +15.0 64 +25 +33 комфорт 1014.2
С 7 16 км ясно +22.0 +16.0 69 +26 +32 душно 1013.9
С 7 16 км ясно +23.0 +16.0 65 +27 +33 душно 1013.5
С 8 16 км ясно +24.0 +16.0 61 +27 +30 жарко 1012.9
СЗ 5 16 км ясно +19.0 +14.0 73 +20 +21 1013.9
СЗ 4 16 км ясно +18.0 +14.0 77 +18 +18 1014.2
ЮЗ 2 16 км 2/2 240 м +14.0 +13.0 94 +13 +13 1015.2
штиль 0 16 км 2/2 240 м +17.0 +13.0 77 +17 +18 1015.6
СЗ 4 16 км 2/2 240 м +18.0 +13.0 73 +18 +20 1015.6
Местоположение метеостанции Palo Alto Airport: широта 37.4700 долгота -122.1200 высота над уровнем моря 2 м.
В архиве по умолчанию представлена погода в Пало Альто за последние 1-2 суток. Обновление информации о фактической погоде в базе происходит ежечасно! Архивные данные за месяц целиком и за предыдущие месяцы Вы можете получить, выбрав интересующий диапазон дат из раскрывающегося списка и нажав кнопку "Ввод!".
Внимание! Архив погоды МЕТАР в базе сайта по станциям, не включенным в климатический монитор, хранится не более 60 дней. Нет смысла пытаться выбрать более раннюю дату.
*Определитесь, кто Вы:
Внимание! Время в таблицах - местное (без учета летнего времени). Для получения всемирного времени необходимо вычесть поправку, которая равна -8 ч.
Смотрите также архив погоды в соседних городах и на ближайших метеорологических станциях:
Партнеры нашего сайта:      
Пояснения к столбцам:
  • Ветер - указаны скорость ветра в м/с - средняя за 10 мин, порывы в срок и между сроками (в фигурных скобках) и направление, откуда дует ветер: С - северный,
  • СВ - северо-восточный, В - восточный, ЮВ - юго-восточный, Ю - южный, ЮЗ - юго-западный, З - западный, СЗ - северо-западный.
  • Видимость - горизонтальная дальность видимости в метрах или километрах. При видимости от 1 до 10 км при отсутствии осадков обычно наблюдается дымка, при ухудшении видимости до 1 км и менее - туман. В сухую погоду видимость может ухудшаться дымом, пылью или мглою.
  • Явления - указаны атмосферные явления, наблюдавшиеся в срок или в последний час перед сроком; фигурными скобками обозначены явления, наблюдавшиеся между сроками (за 1-3 часа до срока); квадратными скобками обозначены град или гололедные отложения с указанием их диаметра в мм.
  • Облачность - указаны через наклонную черту общая и нижняя облачность в баллах и высота нижней границы облаков в метрах; квадратными скобками обозначены формы облаков: Ci - перистые, Cs - перисто-слоистые, Cc - перисто-кучевые, Ac - высококучевые, As - высокослоистые, Sc - слоисто-кучевые, Ns - слоисто-дождевые, Cu - кучевые, Cb - кучево-дождевые. Подробнее классификацию облаков см. в Атласе облаков (PDF).
  • T - Температура воздуха - температура, измеренная на высоте 2 м над землей.
  • Td - Температура точки росы - температура, при понижении до которой содержащийся в воздухе водяной пар достигнет насыщения.
  • f - Относительная влажность воздуха - влажноcть воздуха, измеренная на высоте 2 м над землей.
  • Te - Эффективная температура - температура, которую ощущает одетый по сезону человек в тени. Характеристика душности погоды. При расчете учитывается влияние влажности воздуха и скорости ветра на теплоощущения человека.
  • Tes - Эффективная температура на солнце - температура, которую ощущает человек, с поправкой на солнечный нагрев. Характеристика знойности погоды. Зависит от высоты солнца над горизонтом, облачности и скорости ветра. Ночью, в пасмурную погоду, а также при ветре 12 м/с и более поправка равна нулю.
  • P - Атмосферное давление - приведенное к уровню моря атмосферное давление.
  • Po - Атмосферное давление - измеренное на уровне метеостанции атмосферное давление.
  • Tmin - Минимальная температура - минимум температуры воздуха на высоте 2 м над землей.
  • Tmax - Максимальная температура - максимум температуры воздуха на высоте 2 м над землей.
  • R - Количество осадков - Количество выпавших осадков за период времени, мм. При наведении курсора мыши на число - период времени, за который выпало указанное количество осадков.
  • R24 - Количество осадков - Количество выпавших осадков за 24 часа, мм.
  • S - Снежный покров - Высота снежного покрова, см. При наведении курсора мыши на число - состояние снежного покрова и степень покрытия местности в баллах.